This demonstration page uses our WeatherBlox Daily Observations layout. Learn more.

Left ArrowRight Arrow

40.92945, -100.16068

Hourly Observations for November 14, 2021

Temp ( °F °C ) Dew Point ( °F °C ) Humidity (%) Winds ( mph kmh ) Pressure ( in mb ) Visibility ( mi km ) Precip ( " mm )
12:15 am 00:15 Partly Cloudy 42 5.6 31 -0.7 64 64 NW 12 19 30.16 1021 10 16 0.00 0.00
12:35 am 00:35 Mostly Cloudy 41 5.2 31 -0.5 67 67 NNW 13 20 30.18 1022 10 16 0.00 0.00
12:55 am 00:55 Partly Cloudy 40 4.4 31 -0.7 70 70 NNW 12 19 30.19 1022 10 16 0.00 0.00
1:15 am 01:15 Clear 37 3 30 -1.3 74 74 WNW 8 13 30.21 1023 10 16 0.00 0.00
1:35 am 01:35 Partly Cloudy 34 1.1 28 -2 80 80 W 10 17 30.23 1024 10 16 0.00 0.00
1:55 am 01:55 Partly Cloudy 33 0.7 29 -1.9 83 83 W 7 11 30.23 1024 10 16 0.00 0.00
2:15 am 02:15 Partly Cloudy 33 0.6 29 -1.8 84 84 W 9 15 30.23 1024 10 16 0.00 0.00
2:35 am 02:35 Clear 34 1.1 29 -1.8 81 81 WNW 9 15 30.23 1024 10 16 0.00 0.00
2:55 am 02:55 Clear 34 1.1 29 -1.7 82 82 WNW 8 13 30.23 1024 10 16 0.00 0.00
3:15 am 03:15 Clear 35 1.5 29 -1.6 80 80 WNW 9 15 30.23 1024 10 16 0.00 0.00
3:35 am 03:35 Partly Cloudy 35 1.8 29 -1.5 79 79 WNW 10 17 30.22 1023 10 16 0.00 0.00
3:55 am 03:55 Partly Cloudy 36 2.4 29 -1.5 76 76 W 7 11 30.21 1023 10 16 0.00 0.00
4:15 am 04:15 Mostly Cloudy 39 3.7 29 -1.5 69 69 WNW 10 17 30.20 1023 10 16 0.00 0.00
4:35 am 04:35 Partly Cloudy 38 3.4 29 -1.5 71 71 WNW 12 19 30.20 1023 10 16 0.00 0.00
4:55 am 04:55 Clear 37 2.6 29 -1.6 74 74 WNW 9 15 30.21 1023 10 16 0.00 0.00
5:15 am 05:15 Clear 35 1.6 28 -2 77 77 WNW 9 15 30.21 1023 10 16 0.00 0.00
5:35 am 05:35 Clear 35 1.7 28 -2 77 77 NW 9 15 30.22 1023 10 16 0.00 0.00
5:55 am 05:55 Clear 33 0.8 28 -2 82 82 NNW 9 15 30.23 1024 10 16 0.00 0.00
6:15 am 06:15 Clear 35 1.7 29 -1.7 78 78 WNW 8 13 30.21 1023 10 16 0.00 0.00
6:35 am 06:35 Mostly Cloudy 35 1.8 29 -1.5 79 79 WNW 10 17 30.23 1024 10 16 0.00 0.00
6:55 am 06:55 Cloudy 36 2 29 -1.4 78 78 WNW 10 17 30.23 1024 10 16 0.00 0.00
7:15 am 07:15 Cloudy 36 2.3 29 -1.5 76 76 WNW 12 19 30.22 1024 10 16 0.00 0.00
7:35 am 07:35 Mostly Cloudy 37 2.7 29 -1.6 74 74 WNW 9 15 30.21 1023 10 16 0.00 0.00
7:55 am 07:55 Partly Cloudy 36 2.1 29 -1.5 77 77 WNW 6 9 30.22 1023 10 16 0.00 0.00
8:15 am 08:15 Sunny 35 1.4 29 -1.5 81 81 Calm 30.23 1024 10 16 0.00 0.00
8:35 am 08:35 Sunny 37 2.6 29 -1.4 75 75 NW 5 7 30.22 1023 10 16 0.00 0.00
8:55 am 08:55 Sunny 38 3.5 30 -1 73 73 WNW 6 9 30.21 1023 10 16 0.00 0.00
9:15 am 09:15 Mostly Cloudy 40 4.3 31 -0.8 70 70 W 5 7 30.21 1023 10 16 0.00 0.00
9:35 am 09:35 Cloudy 41 5 31 -0.6 67 67 W 3 6 30.20 1023 10 16 0.00 0.00
9:55 am 09:55 Partly Cloudy 45 7.2 31 -0.3 59 59 W 9 15 30.18 1022 10 16 0.00 0.00
10:15 am 10:15 Partly Cloudy 47 8.6 31 -0.7 52 52 W 10 17 30.16 1021 10 16 0.00 0.00
10:35 am 10:35 Cloudy 48 9.1 31 -0.8 50 50 W 9 15 30.15 1021 10 16 0.00 0.00
10:55 am 10:55 Cloudy 49 9.6 30 -1.2 47 47 W 8 13 30.13 1020 10 16 0.00 0.00
11:15 am 11:15 Mostly Cloudy 50 10.2 29 -1.5 44 44 W 9 15 30.13 1020 10 16 0.00 0.00
11:35 am 11:35 Cloudy 52 11.1 29 -1.7 41 41 W 9 15 30.11 1020 10 16 0.00 0.00
11:55 am 11:55 Cloudy 53 11.7 28 -2.4 38 38 W 12 19 30.10 1019 10 16 0.00 0.00
12:15 pm 12:15 Mostly Cloudy 54 12.1 25 -3.7 33 33 W 10 17 30.07 1018 10 16 0.00 0.00
12:35 pm 12:35 Partly Cloudy 55 12.6 25 -3.9 32 32 W 13 20 30.05 1018 10 16 0.00 0.00
12:55 pm 12:55 Mostly Cloudy 55 12.7 24 -4.4 30 30 WSW 13 20 30.03 1017 10 16 0.00 0.00
1:15 pm 13:15 Cloudy 56 13.4 23 -4.8 28 28 WSW 14 22 30.01 1016 10 16 0.00 0.00
1:35 pm 13:35 Mostly Cloudy 57 13.9 24 -4.7 27 27 WSW 14 22 30.00 1016 10 16 0.00 0.00
1:55 pm 13:55 Partly Cloudy 56 13.5 24 -4.4 29 29 SW 14 22 29.99 1016 10 16 0.00 0.00
2:15 pm 14:15 Sunny 58 14.2 24 -4.2 28 28 WSW 15 24 29.98 1015 10 16 0.00 0.00
2:35 pm 14:35 Mostly Cloudy 58 14.4 22 -5.5 25 25 SW 17 28 29.97 1015 10 16 0.00 0.00
2:55 pm 14:55 Cloudy 56 13.5 23 -5.1 27 27 WSW 12 19 29.97 1015 10 16 0.00 0.00
3:15 pm 15:15 Cloudy 56 13.2 23 -4.8 28 28 SW 13 20 29.96 1015 10 16 0.00 0.00
3:35 pm 15:35 Cloudy 56 13.1 25 -4.1 30 30 SW 13 20 29.96 1015 10 16 0.00 0.00
3:55 pm 15:55 Mostly Cloudy 55 12.6 24 -4.2 31 31 SW 10 17 29.96 1014 10 16 0.00 0.00
4:15 pm 16:15 Sunny 55 12.6 26 -3.5 33 33 SSW 8 13 29.95 1014 10 16 0.00 0.00
4:35 pm 16:35 Sunny 53 11.9 27 -2.9 36 36 SSW 6 9 29.95 1014 10 16 0.00 0.00
4:55 pm 16:55 Mostly Cloudy 50 10.2 28 -2.2 42 42 Calm 29.97 1015 10 16 0.00 0.00
5:15 pm 17:15 Cloudy 51 10.5 29 -1.8 43 43 SE 3 6 29.95 1014 10 16 0.00 0.00
5:35 pm 17:35 Cloudy 49 9.2 28 -2.4 44 44 SE 6 9 29.95 1014 10 16 0.00 0.00
5:55 pm 17:55 Cloudy 51 10.5 27 -2.7 40 40 SSE 6 9 29.94 1014 10 16 0.00 0.00
6:15 pm 18:15 Cloudy 50 10.2 27 -2.7 41 41 SSE 3 6 29.94 1014 10 16 0.00 0.00
6:35 pm 18:35 Mostly Cloudy 50 9.8 27 -2.6 42 42 SSE 8 13 29.92 1013 10 16 0.00 0.00
6:55 pm 18:55 Partly Cloudy 49 9.4 28 -2.1 45 45 SSE 7 11 29.94 1014 10 16 0.00 0.00
7:15 pm 19:15 Mostly Cloudy 46 7.9 29 -1.6 51 51 SSE 8 13 29.94 1014 10 16 0.00 0.00
7:35 pm 19:35 Partly Cloudy 49 9.6 29 -1.8 45 45 S 8 13 29.92 1013 10 16 0.00 0.00
7:55 pm 19:55 Partly Cloudy 48 9 29 -1.5 48 48 N 5 7 29.92 1013 10 16 0.00 0.00
8:15 pm 20:15 Partly Cloudy 49 9.5 28 -2 45 45 S 6 9 29.91 1013 10 16 0.00 0.00
8:35 pm 20:35 Partly Cloudy 47 8.5 29 -1.6 49 49 S 3 6 29.92 1013 10 16 0.00 0.00
8:55 pm 20:55 Partly Cloudy 44 6.8 29 -1.7 55 55 Calm 29.93 1014 10 16 0.00 0.00
9:15 pm 21:15 Partly Cloudy 46 7.6 29 -1.7 52 52 Calm 29.92 1013 10 16 0.00 0.00
9:35 pm 21:35 Clear 47 8.4 29 -1.6 50 50 Calm 29.92 1013 10 16 0.00 0.00
9:55 pm 21:55 Clear 40 4.7 29 -1.5 64 64 Calm 29.95 1014 10 16 0.00 0.00
10:15 pm 22:15 Clear 38 3.3 29 -1.5 71 71 Calm 29.96 1015 10 16 0.00 0.00
10:35 pm 22:35 Clear 38 3.2 29 -1.5 72 72 SSW 3 6 29.97 1015 10 16 0.00 0.00
10:55 pm 22:55 Clear 40 4.3 29 -1.6 66 66 SW 6 9 29.94 1014 10 16 0.00 0.00
11:15 pm 23:15 Clear 37 2.9 29 -1.7 72 72 SW 5 7 29.95 1014 10 16 0.00 0.00
11:35 pm 23:35 Clear 40 4.4 30 -1.2 67 67 SW 5 7 29.92 1013 10 16 0.00 0.00
11:55 pm 23:55 Clear 40 4.2 30 -1.1 69 69 NW 3 6 29.92 1013 10 16 0.00 0.00

Powered by AerisWeather